User: anonymous   Login
Location: Unspecified
(0.0000°N, 0.0000°E)
Time: 01:04:07
(UTC+00:00)
Language:

PERSEUS M2 - Orbit

View from above orbital plane
View from above orbital plane
View from above satellite
View from above satellite

Ground track
Ground track

The orbit data is extracted from the following two-line orbital elements,

1 40037U 14033AD  21023.76947521  .00000110  00000-0  18661-4 0  9992
2 40037  97.8911 304.4381 0013358 314.1778  45.8339 14.86618333357892
Epoch (UTC): 23 January 2021 18:28:02
Eccentricity: 0.0013358
inclination: 97.8911°
perigee height: 599 km
apogee height: 618 km
right ascension of ascending node: 304.4381°
argument of perigee: 314.1778°
revolutions per day: 14.86618333
mean anomaly at epoch: 45.8339°
orbit number at epoch: 35789

The dashed part of the orbit path shows where the satellite is in the earth's shadow,  

DLR